Flag for Canada Weather past 2 weeks in Cornwall, Ontario, Canada

Now
48 °F

Cool.


Feels Like: 44 °F
Forecast: 42 / 48 °F
Wind: 8 mph from West

Location: St Anicet

Current Time: Oct 26, 2014 at 4:40:39 AM

Latest Report: Oct 26, 2014 at 4:00 AM


Visibility: N/A

Pressure: 29.43 "Hg

Humidity: 92%

Dew point: 46 °F

Location of CornwallLocation

Historic Weather in Cornwall — Graph

°F

Cornwall temperature yesterday

Maximum temperature yesterday: 60 °F (at 3:00 PM)
Minimum temperature yesterday: 41 °F (at 8:00 AM)
Average temperature yesterday: 50 °F

Past Weeks' High & Low Weather Summary

 TemperatureHumidityPressure
High83 °F (Oct 14, 1:00 PM)100% (Oct 12, 5:00 AM)30.31 "Hg (Oct 12, 5:00 AM)
Low29 °F (Oct 20, 7:00 AM)40% (Oct 12, 1:00 PM)29.42 "Hg (Oct 26, 2:00 AM)
Average52 °F79%29.91 "Hg
* Reported Oct 11 3:00 AM — Oct 26 3:00 AM, Cornwall, Weather by CustomWeather, © 2014

Note: Actual official high and low records may vary slightly from our data, if they occured in-between our weather recording intervals... More about our weather records

Advertising

Cornwall weather history for previous 24 hours

 ConditionsComfort  
Time TempWeatherWind HumidityBarometerVisibility
3:00 AM
Oct 26
48 °FCool.7 mph90%29.42 "HgN/A
2:00 AM47 °FCool.7 mph94%29.42 "HgN/A
1:00 AM47 °FCool.8 mph96%29.43 "HgN/A
12:00 AM48 °FCool.8 mph92%29.44 "HgN/A
11:00 PM
Oct 25
51 °FCool.10 mph85%29.45 "HgN/A
10:00 PM52 °FCool.10 mph93%29.43 "HgN/A
9:00 PM52 °FCool.8 mph95%29.45 "HgN/A
8:00 PM53 °FCool.7 mph94%29.46 "HgN/A
7:00 PM53 °FCool.8 mph94%29.46 "HgN/A
6:00 PM53 °FCool.7 mph94%29.46 "HgN/A
5:00 PM54 °FCool.5 mph94%29.48 "HgN/A
4:00 PM54 °FCool.5 mph88%29.51 "HgN/A
3:00 PM60 °FCool.15 mph67%29.53 "HgN/A
2:00 PM60 °FCool.10 mph66%29.56 "HgN/A
1:00 PM58 °FCool.9 mph63%29.58 "HgN/A
12:00 PM53 °FCool.7 mph66%29.63 "HgN/A
11:00 AM52 °FCool.8 mph68%29.69 "HgN/A
10:00 AM49 °FCool.9 mph74%29.72 "HgN/A
9:00 AM47 °FCool.8 mph79%29.75 "HgN/A
8:00 AM41 °FQuite cool.5 mph88%29.76 "HgN/A
7:00 AM42 °FQuite cool.7 mph88%29.76 "HgN/A
6:00 AM43 °FQuite cool.7 mph88%29.77 "HgN/A
5:00 AM44 °FQuite cool.8 mph88%29.77 "HgN/A
4:00 AM46 °FCool.8 mph89%29.77 "HgN/A
Weather by CustomWeather, © 2014

See weather overviewHow to use our weather pages